Location: Roc des P�zouls
(43.9667°N, 3.5500°E)
Time: 04:50:45
(UTC+00:00)

Cosmos 2150 Rocket - Pass Details

Date: 14 November 2019
Orbit: 749 x 807 km, 74.0° (Epoch: 06 December)

Event Time Altitude Azimuth Distance (km) Brightness Sun altitude
Rises 05:37:06 0° 193° (SSW) 3,308 7.3 -11.3°
Reaches altitude 10° 05:39:30 10° 191° (S) 2,382 6.6 -10.9°
Maximum altitude 05:44:55 73° 107° (ESE) 843 4.4 -9.9°
Drops below altitude 10° 05:50:21 10° 24° (NNE) 2,384 6.7 -9.0°
Sets 05:52:45 0° 23° (NNE) 3,312 7.4 -8.6°
